Hourly Weather Kayragach

Today, 23 April, Friday

Time Temperature Precipitation Wind Pressure Humidity
00:00 +15°C° 0 mm 2 mps 722 mmHg 37%
01:00 +14°C° 0 mm 2 mps 721 mmHg 38%
02:00 +14°C° 0 mm 2 mps 721 mmHg 38%
03:00 +13°C° 0 mm 2 mps 721 mmHg 38%
04:00 +13°C° 0 mm 2 mps 721 mmHg 38%
05:00 +12°C° 0 mm 2 mps 721 mmHg 38%
06:00 +14°C° 0 mm 1 mps 721 mmHg 34%
07:00 +15°C° 0 mm 1 mps 721 mmHg 31%
08:00 +16°C° 0 mm 1 mps 722 mmHg 28%
09:00 +19°C° 0 mm 1 mps 722 mmHg 27%
10:00 +20°C° 0 mm 1 mps 721 mmHg 25%
11:00 +21°C° 0 mm 2 mps 721 mmHg 24%
12:00 +22°C° 0 mm 1 mps 721 mmHg 22%
13:00 +23°C° 0 mm 1 mps 721 mmHg 20%
14:00 +24°C° 0 mm 1 mps 720 mmHg 18%
15:00 +24°C° 0 mm 1 mps 720 mmHg 18%
16:00 +24°C° 0 mm 1 mps 720 mmHg 17%
17:00 +24°C° 0 mm 1 mps 719 mmHg 17%
18:00 +23°C° 0 mm 1 mps 719 mmHg 19%
19:00 +22°C° 0 mm 1 mps 719 mmHg 22%
20:00 +19°C° 0 mm 2 mps 719 mmHg 24%
21:00 +19°C° 0 mm 2 mps 719 mmHg 26%
22:00 +18°C° 0 mm 2 mps 719 mmHg 28%
23:00 +17°C° 0 mm 2 mps 719 mmHg 30%

Tomorrow, 24 April, Saturday

Time Temperature Precipitation Wind Pressure Humidity
00:00 +17°C° 0 mm 2 mps 718 mmHg 31%
01:00 +16°C° 0 mm 2 mps 718 mmHg 32%
02:00 +15°C° 0 mm 2 mps 718 mmHg 33%
03:00 +15°C° 0 mm 2 mps 718 mmHg 34%
04:00 +15°C° 0 mm 2 mps 718 mmHg 34%
05:00 +14°C° 0 mm 1 mps 718 mmHg 34%
06:00 +16°C° 0 mm 1 mps 718 mmHg 32%
07:00 +18°C° 0 mm 1 mps 718 mmHg 29%
08:00 +19°C° 0 mm 1 mps 719 mmHg 27%
09:00 +21°C° 0 mm 1 mps 719 mmHg 25%
10:00 +23°C° 0 mm 1 mps 719 mmHg 22%
11:00 +24°C° 0 mm 1 mps 718 mmHg 20%
12:00 +25°C° 0 mm 1 mps 718 mmHg 19%
13:00 +26°C° 0 mm 1 mps 718 mmHg 17%
14:00 +27°C° 0 mm 1 mps 718 mmHg 16%
15:00 +27°C° 0 mm 1 mps 718 mmHg 16%
16:00 +27°C° 0 mm 1 mps 718 mmHg 17%
17:00 +26°C° 0 mm 1 mps 718 mmHg 17%
18:00 +25°C° 0 mm 1 mps 718 mmHg 18%
19:00 +24°C° 0 mm 1 mps 719 mmHg 20%
20:00 +24°C° 0 mm 1 mps 719 mmHg 21%
21:00 +23°C° 0 mm 1 mps 719 mmHg 23%
22:00 +23°C° 0 mm 1 mps 719 mmHg 24%
23:00 +22°C° 0 mm 1 mps 719 mmHg 26%

Day after tomorrow, 25 April, Sunday

Time Temperature Precipitation Wind Pressure Humidity
00:00 +21°C° 0 mm 1 mps 719 mmHg 28%
01:00 +20°C° 0 mm 1 mps 719 mmHg 29%
02:00 +19°C° 0 mm 1 mps 718 mmHg 31%
03:00 +19°C° 0 mm 1 mps 719 mmHg 32%
04:00 +18°C° 0 mm 1 mps 719 mmHg 34%
05:00 +18°C° 0 mm 1 mps 719 mmHg 35%
06:00 +19°C° 0 mm 1 mps 719 mmHg 33%
07:00 +21°C° 0 mm 1 mps 719 mmHg 30%
08:00 +22°C° 0 mm 1 mps 720 mmHg 28%
09:00 +24°C° 0 mm 1 mps 720 mmHg 25%
10:00 +25°C° 0 mm 2 mps 720 mmHg 23%
11:00 +27°C° 0 mm 2 mps 719 mmHg 20%
12:00 +28°C° 0 mm 2 mps 719 mmHg 19%
13:00 +29°C° 0 mm 2 mps 719 mmHg 17%
14:00 +29°C° 0 mm 2 mps 718 mmHg 16%
15:00 +29°C° 0 mm 1 mps 718 mmHg 16%
16:00 +30°C° 0 mm 1 mps 718 mmHg 16%
17:00 +30°C° 0 mm 1 mps 718 mmHg 16%
18:00 +28°C° 0 mm 1 mps 718 mmHg 18%
19:00 +26°C° 0 mm 1 mps 718 mmHg 21%
20:00 +25°C° 0 mm 1 mps 718 mmHg 24%
21:00 +24°C° 0 mm 1 mps 718 mmHg 25%
22:00 +23°C° 0 mm 1 mps 718 mmHg 26%
23:00 +23°C° 0 mm 2 mps 718 mmHg 28%

26 April, Monday

Time Temperature Precipitation Wind Pressure Humidity
00:00 +21°C° 0 mm 2 mps 718 mmHg 30%
01:00 +21°C° 0 mm 2 mps 717 mmHg 32%
02:00 +20°C° 0 mm 2 mps 717 mmHg 33%
03:00 +19°C° 0 mm 2 mps 717 mmHg 35%
04:00 +20°C° 0 mm 1 mps 717 mmHg 36%
05:00 +20°C° 0 mm 1 mps 717 mmHg 37%
06:00 +21°C° 0 mm 1 mps 717 mmHg 35%
07:00 +22°C° 0 mm 1 mps 718 mmHg 33%
08:00 +24°C° 0 mm 1 mps 718 mmHg 30%
09:00 +25°C° 0 mm 1 mps 718 mmHg 28%
10:00 +27°C° 0 mm 2 mps 718 mmHg 25%
11:00 +28°C° 0 mm 2 mps 718 mmHg 22%
12:00 +29°C° 0 mm 2 mps 717 mmHg 21%
13:00 +30°C° 0 mm 2 mps 717 mmHg 19%
14:00 +31°C° 0 mm 2 mps 716 mmHg 17%
15:00 +31°C° 0 mm 2 mps 716 mmHg 17%
16:00 +31°C° 0 mm 2 mps 716 mmHg 17%
17:00 +31°C° 0 mm 2 mps 716 mmHg 17%
18:00 +30°C° 0 mm 1 mps 716 mmHg 19%
19:00 +28°C° 0 mm 1 mps 715 mmHg 20%
20:00 +27°C° 0 mm 1 mps 715 mmHg 22%
21:00 +26°C° 0 mm 1 mps 715 mmHg 23%
22:00 +25°C° 0 mm 1 mps 715 mmHg 25%
23:00 +25°C° 0 mm 1 mps 715 mmHg 26%

27 April, Tuesday

Time Temperature Precipitation Wind Pressure Humidity
00:00 +24°C° 0 mm 1 mps 715 mmHg 27%
01:00 +24°C° 0 mm 1 mps 714 mmHg 29%
02:00 +23°C° 0 mm 1 mps 714 mmHg 30%
03:00 +23°C° 0 mm 1 mps 714 mmHg 31%
04:00 +22°C° 0 mm 1 mps 714 mmHg 32%
05:00 +21°C° 0 mm 1 mps 714 mmHg 34%
06:00 +23°C° 0 mm 1 mps 714 mmHg 31%
07:00 +24°C° 0 mm 1 mps 715 mmHg 29%
08:00 +26°C° 0 mm 1 mps 715 mmHg 26%
09:00 +27°C° 0 mm 1 mps 715 mmHg 24%
10:00 +29°C° 0 mm 2 mps 715 mmHg 22%
11:00 +30°C° 0 mm 2 mps 715 mmHg 20%
12:00 +31°C° 0 mm 2 mps 715 mmHg 19%
13:00 +32°C° 0 mm 2 mps 714 mmHg 17%
14:00 +34°C° 0 mm 2 mps 714 mmHg 16%
15:00 +33°C° 0 mm 1 mps 713 mmHg 16%
16:00 +34°C° 0 mm 1 mps 713 mmHg 16%
17:00 +34°C° 0 mm 1 mps 713 mmHg 16%
18:00 +32°C° 0 mm 1 mps 713 mmHg 18%
19:00 +30°C° 0 mm 1 mps 713 mmHg 21%
20:00 +28°C° 0 mm 1 mps 713 mmHg 23%
21:00 +28°C° 0 mm 1 mps 713 mmHg 24%
22:00 +27°C° 0 mm 1 mps 713 mmHg 25%
23:00 +26°C° 0 mm 1 mps 713 mmHg 26%

28 April, Wednesday

Time Temperature Precipitation Wind Pressure Humidity
00:00 +26°C° 0 mm 1 mps 713 mmHg 27%
01:00 +25°C° 0 mm 1 mps 712 mmHg 27%
02:00 +24°C° 0 mm 2 mps 712 mmHg 28%
03:00 +24°C° 0 mm 1 mps 712 mmHg 28%
04:00 +23°C° 0 mm 1 mps 713 mmHg 28%
05:00 +22°C° 0 mm 1 mps 713 mmHg 28%
06:00 +24°C° 0 mm 1 mps 713 mmHg 26%
07:00 +26°C° 0 mm 1 mps 714 mmHg 25%
08:00 +27°C° 0 mm 1 mps 714 mmHg 23%
09:00 +29°C° 0 mm 1 mps 714 mmHg 22%
10:00 +30°C° 0 mm 1 mps 715 mmHg 20%
11:00 +32°C° 0 mm 1 mps 715 mmHg 19%
12:00 +33°C° 0 mm 1 mps 714 mmHg 18%
13:00 +34°C° 0 mm 1 mps 714 mmHg 17%
14:00 +35°C° 0 mm 1 mps 714 mmHg 15%
15:00 +35°C° 0 mm 1 mps 713 mmHg 15%
16:00 +35°C° 0 mm 1 mps 713 mmHg 15%
17:00 +35°C° 0 mm 1 mps 713 mmHg 15%
18:00 +33°C° 0 mm 1 mps 713 mmHg 18%
19:00 +31°C° 0 mm 2 mps 713 mmHg 21%
20:00 +29°C° 0 mm 2 mps 713 mmHg 24%
21:00 +29°C° 0 mm 2 mps 713 mmHg 25%
22:00 +28°C° 0 mm 2 mps 713 mmHg 26%
23:00 +27°C° 0 mm 2 mps 713 mmHg 27%
Show more